Location: Unspecified
(43.4354°N, 0.0000°E)
Time: 17:54:55
(UTC+00:00)

Vanguard 2 Rocket - Pass Details

Date: 23 June 2019
Orbit: 554 x 3326 km, 32.9° (Epoch: 15 July)

Event Time Altitude Azimuth Distance (km) Brightness Sun altitude
Rises 00:51:17 0° 266° (W) 4,933 10.5 -22.2°
Reaches altitude 10° 00:54:08 10° 261° (W) 4,256 10.1 -22.1°
Maximum altitude 01:06:02 51° 190° (S) 3,128 9.1 -21.5°
Drops below altitude 10° 01:24:04 10° 123° (ESE) 6,228 11.0 -20.5°
Sets 01:29:20 0° 119° (ESE) 7,310 11.4 -20.2°
